EDT,Max TemperatureF,Mean TemperatureF,Min TemperatureF,Max Dew PointF,MeanDew PointF,Min DewpointF,Max Humidity, Mean Humidity, Min Humidity, Max Sea Level PressureIn, Mean Sea Level PressureIn, Min Sea Level PressureIn, Max VisibilityMiles, Mean VisibilityMiles, Min VisibilityMiles, Max Wind SpeedMPH, Mean Wind SpeedMPH, Max Gust SpeedMPH,PrecipitationIn, CloudCover, Events, WindDirDegrees
2012-8-1,96,84,71,75,71,64,94,70,46,30.01,29.93,29.84,10,7,2,24,4,30,0.89,6,Rain-Thunderstorm,191
2012-8-2,95,82,69,74,70,67,97,72,46,29.95,29.89,29.84,10,10,8,10,2,16,0.00,3,Thunderstorm,256
2012-8-3,88,81,74,74,72,71,93,76,59,30.00,29.95,29.90,10,9,5,17,4,21,T,6,,177
2012-8-4,90,82,74,74,72,70,88,74,59,30.12,30.06,29.98,10,10,8,15,5,20,0.00,6,Thunderstorm,167
2012-8-5,91,82,73,73,71,69,93,73,52,30.21,30.13,30.09,10,9,1,23,5,26,0.01,5,Rain-Thunderstorm,230
2012-8-6,90,82,73,73,71,70,93,73,52,30.16,30.09,29.98,10,8,2,10,2,14,0.00,6,Fog,54
2012-8-7,92,83,74,73,72,69,93,73,52,30.05,29.99,29.93,10,10,10,10,2,14,0.00,5,,187
2012-8-8,93,83,73,72,71,67,93,70,47,30.03,29.98,29.92,10,10,10,15,2,17,0.00,5,Thunderstorm,152
2012-8-9,83,77,70,73,70,68,93,84,74,29.98,29.93,29.85,10,8,1,21,3,25,1.25,7,Rain-Thunderstorm,143
2012-8-10,84,77,69,73,69,66,93,81,69,29.89,29.86,29.79,10,8,0,30,6,44,0.97,7,Fog-Rain-Thunderstorm,185
2012-8-11,84,75,65,70,62,56,97,69,40,30.00,29.93,29.87,10,10,6,15,5,18,0.01,4,,360
2012-8-12,85,73,60,64,59,57,90,67,43,30.07,30.02,29.99,10,10,10,12,3,17,0.00,3,,301
2012-8-13,83,73,62,68,63,60,93,72,51,30.07,30.02,29.98,10,9,2,16,3,21,0.59,5,Fog-Rain-Thunderstorm,185
2012-8-14,88,78,67,71,68,64,93,77,61,30.00,29.94,29.87,10,8,6,9,2,12,0.00,6,,160
2012-8-15,88,79,69,70,66,62,97,70,43,30.01,29.97,29.91,10,10,8,12,2,15,0.00,4,,300
2012-8-16,90,78,65,72,65,62,93,68,43,30.06,30.01,29.91,10,10,10,9,2,13,0.00,2,,198
2012-8-17,84,76,68,70,66,64,90,74,58,30.04,29.96,29.90,10,10,5,23,4,31,0.01,6,Rain,311
2012-8-18,85,78,70,68,66,63,90,71,51,29.95,29.91,29.84,10,10,7,10,3,14,T,6,,309
2012-8-19,83,76,68,70,67,64,97,76,55,29.92,29.88,29.83,10,8,3,9,2,13,0.06,7,Rain,318
2012-8-20,86,74,61,65,58,51,93,63,32,29.99,29.94,29.91,10,10,9,13,3,16,0.00,2,Fog,352
2012-8-21,86,74,61,62,58,52,93,63,32,30.06,30.03,29.99,10,10,10,13,3,17,0.00,2,,10
2012-8-22,88,75,61,62,58,50,90,61,31,30.14,30.09,30.04,10,10,10,13,2,17,0.00,2,,357
2012-8-23,89,76,62,66,60,57,93,65,36,30.16,30.11,30.05,10,10,10,10,1,18,0.00,2,Fog,31
2012-8-24,90,77,64,68,63,59,93,66,38,30.15,30.09,30.03,10,10,8,10,2,13,0.00,2,,132
2012-8-25,88,78,67,68,65,64,90,68,46,30.15,30.11,30.06,10,10,10,9,2,14,0.00,4,,210
2012-8-26,91,79,67,69,65,60,93,65,36,30.19,30.12,30.04,10,10,6,10,2,14,0.00,2,,3
2012-8-27,92,80,67,69,65,63,90,64,38,30.14,30.05,29.96,10,10,10,12,3,16,0.00,2,,31
2012-8-28,85,77,69,71,69,66,90,76,61,30.02,29.98,29.94,10,10,10,9,3,12,0.00,5,,222
2012-8-29,92,83,74,72,71,68,87,68,49,30.04,29.96,29.90,10,10,10,8,2,10,0.00,6,,25
2012-8-30,87,81,75,72,71,71,87,74,61,30.13,30.04,29.95,10,10,10,12,3,15,0.00,6,,146
2012-8-31,89,82,75,73,72,70,87,71,55,30.24,30.17,30.10,10,10,10,12,3,15,T,6,Rain,133